Location: Red Rock Farm
(35.2100°N, 97.2200°W)
Time: 16:23:31
(UTC-05:00)

ISS - All Passes

Search period start: 17 April 2014 00:00
Search period end: 27 April 2014 00:00
Orbit: 414 x 419 km, 51.6° (Epoch: 17 April)

Date Brightness Start Highest point End Pass type
(mag) Time Alt. Az. Time Alt. Az. Time Alt. Az.
17 Apr - 01:17:48 10° W 01:20:10 18° SW 01:22:31 10° S night (unlit)
17 Apr - 16:20:39 10° SW 16:23:58 70° SE 16:27:18 10° NE daylight
17 Apr - 17:59:01 10° WNW 18:01:02 15° NNW 18:03:03 10° N daylight
17 Apr - 22:52:30 10° NNW 22:55:14 22° NNE 22:57:57 10° E visible
18 Apr - 00:28:58 10° WNW 00:32:02 33° SW 00:35:05 10° SSE night (unlit)
18 Apr - 15:32:41 10° SSW 15:35:44 34° SE 15:38:49 10° ENE daylight
18 Apr - 17:09:52 10° W 17:12:33 22° NNW 17:15:14 10° NNE daylight
18 Apr - 22:04:41 10° N 22:06:45 15° NNE 22:08:48 10° ENE visible
18 Apr - 23:40:27 10° NW 23:43:48 67° SW 23:47:07 10° SE visible
19 Apr - 14:45:10 10° S 14:47:33 18° SE 14:49:56 10° E daylight
19 Apr - 16:20:59 10° WSW 16:24:05 35° NW 16:27:12 10° NNE daylight
19 Apr - 21:17:18 10° N 21:18:09 11° NNE 21:18:59 10° NE visible
19 Apr - 22:52:07 10° NW 22:55:27 62° NE 22:58:46 10° ESE visible
20 Apr - 00:31:20 10° WSW 00:31:47 10° SW 00:32:13 10° SW night (unlit)
20 Apr - 15:32:21 10° SW 15:35:39 65° NW 15:38:59 10° NE daylight
20 Apr - 17:12:00 10° NW 17:12:57 11° NNW 17:13:54 10° N daylight
20 Apr - 22:03:55 10° NNW 22:07:01 34° NE 22:10:06 10° ESE visible
20 Apr - 23:41:06 10° W 23:43:34 19° SW 23:46:02 10° S visible
21 Apr - 14:43:58 10° SW 14:47:15 63° SE 14:50:34 10° NE daylight
21 Apr - 16:22:11 10° WNW 16:24:17 16° NNW 16:26:23 10° N daylight
21 Apr - 21:15:48 10° NNW 21:18:27 21° NNE 21:21:06 10° E visible
21 Apr - 22:52:09 10° WNW 22:55:16 36° SW 22:58:22 10° SSE visible
22 Apr - 13:55:54 10° SSW 13:58:53 31° SE 14:01:53 10° ENE daylight
22 Apr - 15:32:54 10° W 15:35:38 23° NNW 15:38:24 10° NNE daylight
22 Apr - 20:27:51 10° N 20:29:47 14° NNE 20:31:43 10° ENE visible
22 Apr - 22:03:31 10° NW 22:06:52 74° SW 22:10:12 10° SE visible
23 Apr - 13:08:19 10° S 13:10:32 17° SE 13:12:46 10° E daylight
23 Apr - 14:43:53 10° WSW 14:47:02 38° NW 14:50:11 10° NNE daylight
23 Apr - 19:40:38 10° NNE 19:41:01 10° NNE 19:41:24 10° NNE daylight
23 Apr - 21:15:03 10° NW 21:18:22 56° NE 21:21:39 10° ESE visible
23 Apr - 22:53:37 10° WSW 22:54:42 11° SW 22:55:47 10° SW visible
24 Apr - 13:55:08 10° SW 13:58:27 72° NW 14:01:47 10° NE daylight
24 Apr - 15:34:30 10° NW 15:35:41 11° NNW 15:36:52 10° N daylight
24 Apr - 20:26:42 10° NNW 20:29:44 31° NE 20:32:46 10° E daylight
24 Apr - 22:03:43 10° WNW 22:06:20 21° SW 22:08:55 10° S visible
25 Apr - 13:06:38 10° SW 13:09:54 57° SE 13:13:11 10° NE daylight
25 Apr - 14:44:39 10° WNW 14:46:52 16° NNW 14:49:05 10° NNE daylight
25 Apr - 19:38:28 10° NNW 19:41:01 20° NNE 19:43:33 10° E daylight
25 Apr - 21:14:41 10° WNW 21:17:51 40° SW 21:21:00 10° SSE visible
26 Apr - 12:18:28 10° SSW 12:21:22 28° SE 12:24:17 10° ENE daylight
26 Apr - 13:55:15 10° W 13:58:04 25° NNW 14:00:54 10° NNE daylight
26 Apr - 18:50:24 10° N 18:52:10 14° NNE 18:53:56 10° ENE daylight
26 Apr - 20:25:56 10° NW 20:29:17 83° SW 20:32:37 10° SE daylight
